Flag for Ecuador Weather past 2 weeks in Guayaquil, Ecuador

Now
79 °F

Thundershowers. Partly cloudy.


Feels Like: 82 °F
Forecast: 76 / 88 °F
Wind: 2 mph from North

Location: Guayaquil / Simon Bolivar

Current Time: Mar 29, 2015 at 10:05:56 PM

Latest Report: Mar 29, 2015 at 8:00 PM


Visibility: N/A

Pressure: 29.92 "Hg

Humidity: 84%

Dew point: 73 °F

Location of GuayaquilLocation

Historic Weather in Guayaquil — Graph

°F

Guayaquil temperature yesterday

Maximum temperature yesterday: 81 °F (at 12:00 AM)
Minimum temperature yesterday: 75 °F (at 6:00 PM)
Average temperature yesterday: 78 °F

Past Weeks' High & Low Weather Summary

 TemperatureHumidityPressure
High102 °F (Mar 24, 8:00 PM)94% (Mar 28, 11:00 PM)30.01 "Hg (Mar 28, 11:00 PM)
Low73 °F (Mar 17, 6:00 AM)37% (Mar 24, 8:00 PM)29.71 "Hg (Mar 15, 4:00 PM)
Average81 °F76%29.87 "Hg
* Reported Mar 14 8:00 PM — Mar 29 8:00 PM, Guayaquil, Weather by CustomWeather, © 2015

Note: Actual official high and low records may vary slightly from our data, if they occured in-between our weather recording intervals... More about our weather records

Advertising

Guayaquil weather history for previous 24 hours

 ConditionsComfort  
Time TempWeatherWind HumidityBarometerVisibility
8:00 PM
Sun, Mar 29
79 °FThundershowers. Partly cloudy.2 mph84%29.92 "HgN/A
7:00 PM81 °FLight rain. Partly cloudy.5 mph79%29.89 "HgN/A
6:00 PM82 °FBroken clouds.8 mph74%29.86 "HgN/A
5:00 PM84 °FBroken clouds.6 mph70%29.86 "HgN/A
4:00 PM84 °FBroken clouds.6 mph66%29.86 "HgN/A
3:00 PM82 °FBroken clouds.7 mph74%29.86 "HgN/A
2:00 PM84 °FPartly sunny.5 mph70%29.89 "HgN/A
12:00 PM82 °FPartly sunny.2 mph74%29.95 "HgN/A
11:00 AM81 °FPartly sunny.5 mph79%29.98 "HgN/A
10:00 AM79 °FPartly sunny.3 mph79%29.98 "HgN/A
9:00 AM77 °FPartly sunny.5 mph83%29.95 "HgN/A
8:00 AM75 °FPartly sunny.3 mph89%29.95 "HgN/A
7:00 AM75 °FPartly sunny.1 mph89%29.92 "HgN/A
6:00 AM75 °FPassing clouds.1 mph89%29.89 "HgN/A
5:00 AM75 °FPartly cloudy.No wind89%29.89 "HgN/A
4:00 AM75 °FOvercast.No wind89%29.89 "HgN/A
3:00 AM75 °FLight rain. Overcast.No wind89%29.92 "HgN/A
2:00 AM75 °FLight rain. Overcast.2 mph89%29.92 "Hg5 mi
1:00 AM75 °FLight rain. Overcast.2 mph89%29.95 "HgN/A
12:00 AM75 °FLight rain. Overcast.3 mph94%29.95 "HgN/A
11:00 PM
Sat, Mar 28
75 °FLight rain. Overcast.2 mph94%29.98 "HgN/A
10:00 PM77 °FLight rain. Overcast.2 mph89%29.98 "HgN/A
Weather by CustomWeather, © 2015

See weather overviewHow to use our weather pages